Location: Cluj-Napoca
(46.7712°N, 23.6236°E)
Time: 11:54:57
(UTC+03:00)

ISS - Pass Details

Date: 05 May 2021
Orbit: 417 x 422 km, 51.6° (Epoch: 15 May)

Event Time Altitude Azimuth Distance (km) Brightness Sun altitude
Exits shadow 04:34:10 14° 279° (W) 1,281 -1.7 -13.6°
Maximum altitude 04:36:48 41° 348° (NNW) 624 -2.7 -13.3°
Drops below altitude 10° 04:40:02 10° 60° (ENE) 1,508 0.4 -12.9°
Sets 04:42:13 0° 68° (ENE) 2,375 1.6 -12.6°
